Regional Weather Roundup
Issued by NWS Bismarck, ND

Home | Current Version | Previous Version | Text Only | Print | Product List | Glossary On
Versions: 1 2 3 4 5 6 7 8 9 10 11 12 13 14 15 16 17 18 19 20 21 22 23 24 25 26 27 28 29 30 31 32 33 34 35 36 37 38 39 40 41 42 43 44 45 46 47 48 49 50
000
ASUS43 KBIS 071610
RWRBIS

NWR BROADCAST TEXT
NATIONAL WEATHER SERVICE BISMARCK ND
1100 AM CDT TUE JUL 07 2015

NOTE: "FAIR" INDICATES FEW OR NO CLOUDS BELOW 12,000 FEET WITH NO
SIGNIFICANT WEATHER AND/OR OBSTRUCTIONS TO VISIBILITY.


CITY           SKY/WX    TMP DP  RH WIND       PRES   REMARKS
WILLISTON      CLOUDY    68  54  60 S9        30.08F HAZE
MINOT          SUNNY     66  49  54 S10       30.11F
MINOT AFB      SUNNY     69  55  60 S13       30.10F
BISMARCK       SUNNY     66  53  63 SE9       30.15F
DICKINSON      MOSUNNY   67  54  63 S12       30.10F
GARRISON         N/A     65  54  67 S9        30.12F
HETTINGER ARPT MOSUNNY   66  56  70 SE9       30.12F HAZE
JAMESTOWN      SUNNY     64  44  48 CALM      30.17F
BEACH          FAIR      66  57  72 S10       30.09F
CROSBY         FAIR      66  59  77 S10       30.08F HAZE
HARVEY         FAIR      66  46  48 SW7       30.15F
HAZEN          FAIR      66  54  63 S12       30.13F
LINTON         FAIR      64  55  72 SE12      30.17S
MANDAN         FAIR      64  54  68 SE10      30.15F
OAKES            N/A     64  48  55 E6        30.20S
STANLEY        FAIR      66  59  77 S10       30.12F
$$

CITY           SKY/WX    TMP DP  RH WIND       PRES   REMARKS
GRAND FORKS    SUNNY     65  45  48 SW7       30.17F
GRAND FORKS AF SUNNY     67  47  49 W3        30.17F
DEVILS LAKE    SUNNY     64  46  52 SW8       30.15F
FARGO          SUNNY     65  45  48 S5        30.19F
CANDO          FAIR      66  46  48 W12       30.15F
CAVALIER       FAIR      66  50  55 SW7       30.15F
GRAFTON        FAIR      66  46  48 SW7       30.17F
GWINNER        FAIR      64  45  48 S5        30.21S
LANGDON        FAIR      66  50  55 SW12      30.16F
ROLLA          FAIR      63  48  59 SW16      30.15F
WALHALLA       FAIR      66  50  55 MISG      30.14F
$$

CITY           SKY/WX    TMP DP  RH WIND       PRES   REMARKS
ABERDEEN       SUNNY     64  48  56 SE7       30.20F
MOBRIDGE       SUNNY     68  54  60 SE16      30.15F
BUFFALO          N/A     71  57  61 SE13      30.03F
RAPID CITY     MOSUNNY   70  58  65 S13       30.13F
GLASGOW        SUNNY     68  52  56 VRB5      30.04F
SIDNEY         MOSUNNY   66  54  63 S9        30.08F
WOLF POINT     PTSUNNY   68  54  60 CALM      30.06F HAZE
GLENDIVE       MOSUNNY   70  54  56 NE3       30.07F
MILES CITY     SUNNY     67  54  63 VRB3      30.05F
BAKER          MOSUNNY   67  55  65 SE16      30.08F
$$

CITY           SKY/WX    TMP DP  RH WIND       PRES   REMARKS
BILLINGS       MOSUNNY   66  53  63 SW6       30.10S
GREAT FALLS    PTSUNNY   62  50  64 W9        30.15R
REGINA         PTSUNNY   70  54  56 SW10      30.02F
$$



USA.gov is the U.S. government's official web portal to all federal, state and local government web resources and services.